Location: Wilhelmshaven
(53.5279°N, 8.1063°E)
Time: 14:53:53
(UTC+02:00)

ISS - Pass Details

Date: 11 July 2022
Orbit: 412 x 420 km, 51.6° (Epoch: 14 August)

Event Time Altitude Azimuth Distance (km) Brightness Sun altitude
Rises 03:13:26 0° 270° (W) 2,361 -0.2 -11.3°
Reaches altitude 10° 03:15:32 10° 267° (W) 1,499 -1.2 -11.2°
Maximum altitude 03:18:51 60° 187° (S) 484 -3.8 -11.0°
Drops below altitude 10° 03:22:11 10° 107° (ESE) 1,503 -0.8 -10.8°
Sets 03:24:24 0° 103° (ESE) 2,406 0.3 -10.6°
